This is the latest recevied weather packets stored in our database for station/object WP3OF-1. If no packets are shown the sender has not sent any weather packets the latest 10 day(s).
| Time | Temp. | Humidity | Pressure | Rain* | Wind** | Luminosity | Snow |
|---|---|---|---|---|---|---|---|
| 1777311085 | 28.33° C | 75% | 1016.2 hPa | 0 mm | - | - | - |
| 1777310784 | 28.33° C | 74% | 1016.3 hPa | 0 mm | - | - | - |
| 1777310481 | 28.89° C | 77% | 1016.2 hPa | 0 mm | - | - | - |
| 1777308969 | 28.89° C | 73% | 1016.9 hPa | 0 mm | - | - | - |
| 1777308664 | 28.89° C | 73% | 1016.8 hPa | 0 mm | - | - | - |
| 1777307753 | 27.78° C | 77% | 1017.1 hPa | 0 mm | - | - | - |
| 1777307450 | 28.89° C | 73% | 1017.1 hPa | 0 mm | - | - | - |
| 1777307147 | 28.33° C | 73% | 1017.1 hPa | 0 mm | - | - | - |
| 1777306844 | 28.33° C | 75% | 1017.1 hPa | 0 mm | - | - | - |
| 1777306541 | 28.89° C | 77% | 1017.1 hPa | 0 mm | - | - | - |
| 1777306237 | 28.33° C | 77% | 1017.1 hPa | 0 mm | - | - | - |
| 1777305936 | 27.78° C | 78% | 1017.2 hPa | 0 mm | - | - | - |
| 1777305633 | 27.78° C | 78% | 1017.2 hPa | 0 mm | - | - | - |
| 1777305329 | 27.78° C | 79% | 1017.3 hPa | 0 mm | - | - | - |
| 1777305029 | 27.78° C | 78% | 1017.4 hPa | 0 mm | - | - | - |
| 1777304724 | 27.78° C | 80% | 1017.4 hPa | 0 mm | - | - | - |
| 1777304119 | 27.78° C | 81% | 1017.5 hPa | 0 mm | - | - | - |
| 1777303815 | 27.22° C | 81% | 1017.5 hPa | 0 mm | - | - | - |
| 1777303210 | 27.78° C | 81% | 1017.6 hPa | 0 mm | - | - | - |
| 1777300788 | 28.33° C | 76% | 1017.3 hPa | 0 mm | - | - | - |
| 1777300487 | 27.78° C | 79% | 1017.3 hPa | 0 mm | - | - | - |
| 1777300184 | - | - | - | 0 mm | - | - | - |
| 1777299880 | 27.78° C | 75% | 1017.5 hPa | 0 mm | - | - | - |
| 1777299578 | 27.78° C | 75% | 1017.3 hPa | 0 mm | - | - | - |
| 1777299276 | 27.78° C | 79% | 1017.7 hPa | 0 mm | - | - | - |
* Rain latest hour (hover to see other rain measurements)
** Current wind speed in m/s (hover to see current wind gust speed)